[[{"header":{"parameterUnit":"m.s-1","parameterCategory":1,"la1":30.2991,"la2":30.254,"lo1":-89.0895,"lo2":-89.0444,"dy":0.0017,"dx":0.0017,"nx":28,"ny":28,"refTime":"2025-12-15T03:00:00:Z","depth":0,"parameterNumber":2,"parameterNumberName":"U-component_of_WINDS"},"data":[0,0,0,0,0,0,0,0,0,0,0,0,0,0,0,0,0,0,0,0,0,0,0,0,0,0,0,0,0,0,0,0,0,0,0,0,0,0,0,0,0,0,0,0,0,0,0,0,0,0,0,0,0,0,0,0,0,0,-0.8818,-0.8818,0,-0.8841,-0.8841,-0.8841,-0.8821,-0.882,-0.8819,-0.8819,-0.8844,-0.8845,-0.8846,0,0,0,0,0,0,0,0,0,0,0,0,0,-0.8757,-0.8758,-0.8818,-0.8818,-0.8819,-0.8841,-0.8841,-0.8842,-0.8821,-0.882,-0.8819,-0.8818,-0.8843,-0.8845,-0.8846,0,0,0,0,0,0,0,0,0,0,0,0,0,-0.8782,-0.8758,-0.8818,-0.8811,-0.8811,-0.8841,-0.8841,-0.8842,-0.8822,-0.882,-0.8819,-0.8818,-0.8843,-0.8845,-0.8847,-0.8885,0,0,-0.8853,-0.8854,0,0,0,0,0,0,0,0,-0.8781,-0.8784,-0.8812,-0.8812,-0.8811,-0.8827,-0.8829,-0.8856,-0.8822,-0.8817,-0.8819,-0.8817,-0.8839,-0.8841,-0.8849,-0.8886,-0.8887,-0.8854,-0.8855,-0.8856,-0.8856,0,0,0,0,0,0,0,-0.8779,-0.8783,-0.8827,-0.8812,-0.8812,-0.8807,-0.8809,-0.8834,-0.8835,-0.8818,-0.8816,-0.8819,-0.8839,-0.8847,-0.8849,-0.8888,-0.8853,-0.8855,-0.8857,-0.8858,-0.8957,-0.8959,0,0,0,0,0,0,-0.8778,-0.8782,-0.8826,-0.8828,-0.8792,-0.8809,-0.8811,-0.8823,-0.8835,-0.8835,-0.882,-0.8818,-0.8843,-0.8846,-0.885,-0.8895,-0.8856,-0.8858,-0.8859,-0.8956,-0.8958,-0.8959,0,0,0,0,0,0,-0.8776,-0.8782,-0.8825,-0.8804,-0.881,-0.8811,-0.8825,-0.8824,-0.8832,-0.8837,-0.8837,-0.8828,-0.8843,-0.8847,-0.8876,-0.8896,-0.8859,-0.8861,-0.8954,-0.8956,-0.8958,-0.8987,0,0,0,0,0,0,-0.8775,-0.8782,-0.8796,-0.8805,-0.8811,-0.8852,-0.8826,-0.8826,-0.8836,-0.8833,-0.8844,-0.8845,-0.8842,-0.8873,-0.8878,-0.8898,-0.8862,-0.8953,-0.8955,-0.8958,-0.8984,-0.899,-0.8995,0,0,0,0,0,-0.8773,-0.8804,-0.8797,-0.8803,-0.8829,-0.8853,-0.8856,-0.8852,-0.8837,-0.8852,-0.8855,-0.8844,-0.8893,-0.8876,-0.8882,-0.8903,-0.8951,-0.8955,-0.8958,-0.8982,-0.8989,-0.8994,0,0,0,0,0,0,-0.8799,-0.8805,-0.8798,-0.8833,-0.8842,-0.8849,-0.8868,-0.8859,-0.8874,-0.8871,-0.8865,-0.8868,-0.8899,-0.8904,-0.8886,-0.894,-0.892,-0.8924,-0.8936,-0.8943,-0.8948,-0.8947,-0.8864,0,0,0,0,0,-0.8808,-0.8827,-0.8831,-0.8862,-0.8867,-0.8866,-0.8877,-0.8872,-0.8882,-0.8887,-0.8892,-0.8902,-0.8919,-0.8931,-0.8947,-0.8984,-0.8986,-0.9001,-0.9006,-0.9011,-0.9015,-0.9034,-0.9041,-0.8969,-0.8969,-0.8969,0,0,-0.8829,-0.8834,-0.8847,-0.8867,-0.8874,-0.8893,-0.887,-0.8892,-0.8906,-0.889,-0.8918,-0.8922,-0.8933,-0.8966,-0.8981,-0.8971,-0.9035,-0.9014,-0.9018,-0.902,-0.9038,-0.9045,-0.9051,-0.8971,-0.8971,-0.897,0,0,-0.8876,-0.8882,-0.8908,-0.8915,-0.8925,-0.8925,-0.8931,-0.8939,-0.8941,-0.8968,-0.8957,-0.8973,-0.9004,-0.9012,-0.902,-0.9068,-0.9059,-0.9074,-0.9101,-0.912,-0.9125,-0.913,-0.9148,-0.9154,-0.9077,-0.9078,-0.9078,0,-0.8901,-0.8929,-0.8922,-0.8945,-0.8954,-0.8939,-0.8965,-0.8972,-0.8988,-0.8994,-0.8982,-0.9019,-0.9026,-0.906,-0.9072,-0.9079,-0.9086,-0.9073,-0.9125,-0.913,-0.9134,-0.9151,-0.9158,-0.9079,-0.9079,-0.9079,-0.9079,0,-0.8958,-0.8978,-0.8998,-0.9012,-0.9023,-0.9047,-0.9044,-0.9056,-0.9051,-0.9051,-0.9079,-0.9086,-0.9103,-0.9111,-0.9106,-0.9145,-0.9138,-0.9126,-0.9105,-0.9143,-0.9159,-0.9165,-0.9082,-0.9081,-0.9081,-0.908,0,0,-0.9025,-0.9034,-0.9041,-0.9047,-0.9057,-0.9072,-0.9095,-0.9111,-0.9121,-0.9132,-0.9151,-0.9176,-0.9164,-0.9173,-0.9169,-0.9185,-0.9223,-0.9171,-0.9171,-0.9181,-0.9266,-0.9276,-0.9284,-0.9216,-0.9218,-0.9219,-0.9266,0,-0.9073,-0.9112,-0.9106,-0.9145,-0.9163,-0.9148,-0.9168,-0.9176,-0.9176,-0.9191,-0.9192,-0.921,-0.9193,-0.9198,-0.9214,-0.9215,-0.9241,-0.9212,-0.9235,-0.9236,-0.9234,-0.9292,-0.9303,-0.9347,-0.9272,-0.9273,-0.9273,0,-0.9135,-0.9147,-0.9187,-0.9192,-0.92,-0.9218,-0.9231,-0.9246,-0.9254,-0.9253,-0.9263,-0.9255,-0.9277,-0.9255,-0.9286,-0.9267,-0.9275,-0.9278,-0.9279,-0.9282,-0.9258,-0.9297,-0.9361,-0.9368,-0.9283,-0.9282,-0.9281,0,-0.918,-0.9206,-0.9233,-0.9238,-0.9246,-0.9258,-0.9262,-0.9269,-0.9279,-0.929,-0.9297,-0.9311,-0.9319,-0.933,-0.9326,-0.9311,-0.9358,-0.9336,-0.9358,-0.9359,-0.9371,-0.937,-0.9438,-0.9375,-0.9374,-0.9374,-0.9374,0,-0.9235,-0.926,-0.9253,-0.927,-0.9297,-0.9289,-0.9317,-0.9319,-0.9325,-0.9341,-0.9329,-0.9345,-0.9338,-0.9354,-0.9351,-0.9377,-0.938,-0.938,-0.938,-0.9382,-0.9382,-0.9389,-0.9386,-0.9376,-0.9376,-0.9375,-0.9375,0,-0.9291,-0.9287,-0.9315,-0.9319,-0.9321,-0.9341,-0.9344,-0.936,-0.9358,-0.938,-0.9384,-0.9383,-0.94,-0.9396,-0.9416,-0.9414,-0.9447,-0.9441,-0.9444,-0.9443,-0.9466,-0.9464,-0.9541,-0.9551,-0.9481,-0.9481,-0.9482,0,-0.9326,-0.9345,-0.9351,-0.9361,-0.9365,-0.9381,-0.9391,-0.9383,-0.9394,-0.9404,-0.9418,-0.9434,-0.9447,-0.9475,-0.9476,-0.949,-0.9486,-0.9512,-0.9488,-0.949,-0.9487,-0.9486,-0.9488,-0.9517,-0.9518,-0.9518,-0.9519,0,-0.9391,-0.9387,-0.9401,-0.9414,-0.9426,-0.9436,-0.9444,-0.9453,-0.9446,-0.9458,-0.9476,-0.9485,-0.9504,-0.9521,-0.9534,-0.9537,-0.9527,-0.9526,-0.9532,-0.9536,-0.9536,-0.9537,-0.9457,-0.9525,-0.9524,-0.9524,-0.9523,-0.9523,-0.9438,-0.9454,-0.946,-0.9475,-0.9481,-0.9489,-0.9504,-0.9503,-0.9518,-0.9532,-0.9527,-0.9546,-0.9553,-0.9569,-0.9574,-0.9589,-0.958,-0.9589,-0.9591,-0.9594,-0.9597,-0.9533,-0.9592,-0.9592,-0.9591,-0.9591,-0.9591,0,-0.9502,-0.9505,-0.9519,-0.9531,-0.9543,-0.9531,-0.954,-0.9551,-0.9568,-0.9575,-0.9587,-0.9606,-0.9621,-0.9622,-0.9637,-0.9649,-0.9644,-0.9653,-0.9652,-0.9653,-0.9604,-0.9598,-0.9656,-0.9656,-0.9656,-0.9656,-0.9656,-0.9656,-0.9537,-0.9563,-0.956,-0.9588,-0.9591,-0.961,-0.9616,-0.9623,-0.9628,-0.965,-0.9662,-0.9662,-0.9667,-0.9681,-0.9694,-0.9694,-0.97,-0.971,-0.9708,-0.9663,-0.9657,-0.9651,-0.9645,-0.9711,-0.9711,-0.9756,-0.9756,-0.9757]},{"header":{"parameterUnit":"m.s-1","parameterCategory":1,"la1":30.2991,"la2":30.254,"lo1":-89.0895,"lo2":-89.0444,"dy":0.0017,"dx":0.0017,"nx":28,"ny":28,"refTime":"2025-12-15T03:00:00:Z","depth":0,"parameterNumber":3,"parameterNumberName":"V-component_of_WINDS"},"data":[0,0,0,0,0,0,0,0,0,0,0,0,0,0,0,0,0,0,0,0,0,0,0,0,0,0,0,0,0,0,0,0,0,0,0,0,0,0,0,0,0,0,0,0,0,0,0,0,0,0,0,0,0,0,0,0,0,0,-9.7616,-9.7617,0,-9.775,-9.7752,-9.7753,-9.7675,-9.7671,-9.7667,-9.7664,-9.7794,-9.7801,-9.7808,0,0,0,0,0,0,0,0,0,0,0,0,0,-9.7284,-9.7291,-9.7616,-9.7617,-9.7619,-9.775,-9.7752,-9.7754,-9.7676,-9.7671,-9.7666,-9.7662,-9.7792,-9.78,-9.7808,0,0,0,0,0,0,0,0,0,0,0,0,0,-9.7424,-9.7293,-9.7615,-9.7596,-9.7596,-9.775,-9.7752,-9.7754,-9.7677,-9.7671,-9.7665,-9.766,-9.7789,-9.7799,-9.781,-9.7988,0,0,-9.7842,-9.7846,0,0,0,0,0,0,0,0,-9.7417,-9.7437,-9.7597,-9.7598,-9.7597,-9.769,-9.7683,-9.7832,-9.7678,-9.7646,-9.7664,-9.7657,-9.7764,-9.7776,-9.7813,-9.7994,-9.8,-9.7843,-9.7849,-9.7853,-9.7856,0,0,0,0,0,0,0,-9.7407,-9.743,-9.7669,-9.76,-9.76,-9.7578,-9.7592,-9.7711,-9.7734,-9.7648,-9.7643,-9.766,-9.7762,-9.7803,-9.7816,-9.8002,-9.7842,-9.7852,-9.7858,-9.7862,-9.8337,-9.8343,0,0,0,0,0,0,-9.74,-9.7423,-9.7664,-9.7673,-9.7491,-9.7589,-9.7604,-9.7666,-9.7733,-9.7738,-9.7665,-9.7656,-9.7788,-9.7804,-9.782,-9.8035,-9.7853,-9.7863,-9.7869,-9.833,-9.8338,-9.8345,0,0,0,0,0,0,-9.7393,-9.7422,-9.7659,-9.7547,-9.7575,-9.7601,-9.7671,-9.7672,-9.7713,-9.7746,-9.7749,-9.7703,-9.7784,-9.7805,-9.7948,-9.8038,-9.7868,-9.7877,-9.8323,-9.8333,-9.8342,-9.8465,0,0,0,0,0,0,-9.7384,-9.742,-9.7489,-9.7549,-9.7581,-9.7787,-9.7676,-9.7678,-9.7732,-9.7722,-9.7782,-9.7787,-9.7782,-9.7933,-9.7958,-9.8049,-9.7886,-9.8315,-9.8327,-9.8339,-9.8453,-9.8477,-9.8498,0,0,0,0,0,-9.7372,-9.7517,-9.7493,-9.7523,-9.7669,-9.7792,-9.781,-9.7804,-9.7739,-9.7809,-9.783,-9.7785,-9.8024,-9.7948,-9.7976,-9.8072,-9.8309,-9.8324,-9.8338,-9.8443,-9.8473,-9.8498,0,0,0,0,0,0,-9.7464,-9.7524,-9.7499,-9.7667,-9.7726,-9.7779,-9.7866,-9.7835,-9.7911,-9.7898,-9.7884,-9.7898,-9.8047,-9.8073,-9.7987,-9.8249,-9.8156,-9.8177,-9.8226,-9.8255,-9.8278,-9.8268,-9.7894,0,0,0,0,0,-9.7504,-9.7601,-9.7647,-9.7791,-9.7823,-9.784,-9.7893,-9.7883,-9.7941,-9.7965,-9.7997,-9.8053,-9.8141,-9.8199,-9.8282,-9.8456,-9.8468,-9.8536,-9.8559,-9.8577,-9.8595,-9.869,-9.8721,-9.8392,-9.8391,-9.8391,0,0,-9.7587,-9.7632,-9.7694,-9.7811,-9.7855,-9.7955,-9.7861,-9.7969,-9.8042,-9.798,-9.8118,-9.8144,-9.8206,-9.8366,-9.8437,-9.8392,-9.8689,-9.8595,-9.861,-9.8618,-9.8708,-9.8739,-9.8767,-9.8401,-9.8399,-9.8398,0,0,-9.779,-9.7834,-9.796,-9.8007,-9.8077,-9.8087,-9.8118,-9.8176,-9.8192,-9.8331,-9.8287,-9.8372,-9.8524,-9.8571,-9.8614,-9.8838,-9.8799,-9.8865,-9.8984,-9.9077,-9.9103,-9.9126,-9.9207,-9.9236,-9.8882,-9.8883,-9.8883,0,-9.7884,-9.8035,-9.8028,-9.8142,-9.8195,-9.8147,-9.8273,-9.8318,-9.841,-9.8447,-9.8395,-9.8586,-9.8624,-9.8795,-9.885,-9.8886,-9.892,-9.8858,-9.91,-9.9123,-9.9144,-9.9221,-9.9252,-9.889,-9.889,-9.8889,-9.8888,0,-9.8148,-9.8253,-9.8346,-9.844,-9.8503,-9.8622,-9.8632,-9.8696,-9.8682,-9.8697,-9.8839,-9.8884,-9.8976,-9.9015,-9.9,-9.9184,-9.9154,-9.9102,-9.9009,-9.9184,-9.9256,-9.9285,-9.8901,-9.8899,-9.8896,-9.8895,0,0,-9.8412,-9.8503,-9.8537,-9.858,-9.8654,-9.8733,-9.885,-9.8943,-9.8999,-9.9064,-9.9161,-9.9292,-9.9245,-9.9295,-9.9284,-9.9366,-9.9542,-9.9303,-9.9304,-9.9347,-9.9749,-9.9789,-9.9823,-9.9516,-9.9522,-9.9526,-9.9744,0,-9.8621,-9.8829,-9.8827,-9.9018,-9.9116,-9.9072,-9.9174,-9.9229,-9.9248,-9.9331,-9.9349,-9.9443,-9.9373,-9.9403,-9.9482,-9.9504,-9.9622,-9.9488,-9.9606,-9.961,-9.9593,-9.986,-9.9902,-10.0106,-9.9772,-9.9777,-9.978,0,-9.8892,-9.897,-9.9173,-9.9235,-9.9275,-9.9368,-9.9454,-9.9534,-9.9596,-9.9603,-9.966,-9.9638,-9.9755,-9.9659,-9.982,-9.9729,-9.9777,-9.9795,-9.9803,-9.9814,-9.9706,-9.9879,-10.017,-10.0201,-9.9824,-9.982,-9.9817,0,-9.9066,-9.9221,-9.9363,-9.9401,-9.9476,-9.9542,-9.9576,-9.9632,-9.9689,-9.9763,-9.98,-9.9885,-9.9932,-9.9998,-9.9999,-9.9929,-10.0162,-10.0066,-10.0171,-10.0171,-10.0222,-10.0219,-10.0526,-10.0252,-10.0252,-10.0251,-10.025,0,-9.93,-9.9426,-9.9443,-9.953,-9.967,-9.9666,-9.9803,-9.983,-9.9881,-9.9972,-9.9938,-10.0023,-10.0019,-10.0105,-10.0105,-10.0239,-10.026,-10.0268,-10.0267,-10.0273,-10.0272,-10.0304,-10.029,-10.0259,-10.0257,-10.0256,-10.0254,0,-9.9518,-9.9534,-9.9687,-9.9747,-9.9765,-9.9865,-9.9915,-9.9998,-10.0013,-10.0129,-10.0155,-10.0179,-10.0279,-10.0286,-10.04,-10.0401,-10.0564,-10.0546,-10.0544,-10.0542,-10.0647,-10.0637,-10.0986,-10.1031,-10.0727,-10.073,-10.0732,0,-9.9667,-9.9763,-9.9835,-9.9895,-9.9934,-10.0031,-10.009,-10.0088,-10.0151,-10.023,-10.0303,-10.04,-10.0477,-10.0638,-10.0664,-10.0751,-10.0736,-10.0852,-10.0749,-10.0752,-10.0739,-10.0734,-10.0744,-10.0873,-10.0876,-10.0879,-10.0881,0,-9.993,-9.9934,-10.0022,-10.0114,-10.0186,-10.0257,-10.0323,-10.0373,-10.038,-10.0451,-10.0555,-10.0616,-10.0734,-10.0831,-10.0917,-10.0949,-10.0917,-10.0914,-10.0943,-10.0949,-10.0945,-10.095,-10.06,-10.0905,-10.0903,-10.0901,-10.09,-10.0899,-10.0118,-10.0203,-10.0268,-10.0367,-10.0418,-10.0481,-10.0563,-10.059,-10.0678,-10.0777,-10.077,-10.0884,-10.0943,-10.1056,-10.1095,-10.1183,-10.1144,-10.1186,-10.1196,-10.1207,-10.1219,-10.093,-10.1199,-10.1198,-10.1197,-10.1197,-10.1196,0,-10.038,-10.0421,-10.0513,-10.0609,-10.0687,-10.0653,-10.0725,-10.0792,-10.0894,-10.0954,-10.1032,-10.1152,-10.1246,-10.128,-10.1371,-10.1435,-10.1423,-10.1459,-10.1455,-10.1463,-10.1248,-10.1215,-10.1468,-10.1468,-10.1468,-10.1468,-10.1468,-10.1468,-10.0526,-10.0669,-10.0681,-10.0848,-10.0886,-10.1001,-10.1045,-10.1103,-10.1151,-10.1288,-10.1367,-10.139,-10.144,-10.1535,-10.1619,-10.1626,-10.1662,-10.1705,-10.1706,-10.1505,-10.1478,-10.1452,-10.142,-10.1713,-10.1713,-10.1914,-10.1916,-10.1917]}]]